Private Wetterstation Sandau
Wetterdaten: Freitag, 05.10.2012
Datum Zeit Temp. A. Feuchte A. Luftdruck Regen Wind Richtung Richtung Taupunkt Windchill
05.10.2012 00:01 8,6 C 89 % 1013,5 hPa 0,0 l/m 12,2 km/h (2 Bft) W 270 6,9 C 6,6 C
05.10.2012 00:06 8,6 C 89 % 1013,4 hPa 0,0 l/m 13,3 km/h (3 Bft) W 270 6,9 C 6,4 C
05.10.2012 00:11 8,6 C 89 % 1013,6 hPa 0,0 l/m 22,7 km/h (4 Bft) W 270 6,9 C 5,3 C
05.10.2012 00:16 8,5 C 90 % 1013,6 hPa 0,0 l/m 22,3 km/h (4 Bft) W-SW 247 7,0 C 5,3 C
05.10.2012 00:21 8,5 C 90 % 1013,6 hPa 0,0 l/m 19,4 km/h (3 Bft) W-SW 247 7,0 C 5,5 C
05.10.2012 00:26 8,6 C 90 % 1013,9 hPa 0,0 l/m 19,8 km/h (3 Bft) W-SW 247 7,1 C 5,6 C
05.10.2012 00:31 8,5 C 90 % 1013,9 hPa 0,0 l/m 12,2 km/h (2 Bft) W-SW 247 7,0 C 6,5 C
05.10.2012 00:36 8,5 C 90 % 1013,9 hPa 0,0 l/m 9,7 km/h (2 Bft) W 270 7,0 C 6,9 C
05.10.2012 00:41 8,5 C 90 % 1013,9 hPa 0,0 l/m 13,0 km/h (3 Bft) W-SW 247 7,0 C 6,3 C
05.10.2012 00:46 8,5 C 90 % 1013,9 hPa 0,0 l/m 19,1 km/h (3 Bft) W 270 7,0 C 5,6 C
05.10.2012 00:51 8,4 C 90 % 1013,9 hPa 0,0 l/m 17,6 km/h (3 Bft) W 270 6,9 C 5,6 C
05.10.2012 00:56 8,4 C 90 % 1014,2 hPa 0,0 l/m 8,3 km/h (2 Bft) W-SW 247 6,9 C 7,1 C
05.10.2012 01:01 8,4 C 90 % 1014,2 hPa 0,0 l/m 15,5 km/h (3 Bft) W-SW 247 6,9 C 5,9 C
05.10.2012 01:06 8,4 C 90 % 1014,2 hPa 0,0 l/m 8,3 km/h (2 Bft) W-SW 247 6,9 C 7,1 C
05.10.2012 01:11 8,4 C 90 % 1014,2 hPa 0,0 l/m 15,1 km/h (3 Bft) W-SW 247 6,9 C 5,9 C
05.10.2012 01:16 8,4 C 90 % 1014,3 hPa 0,0 l/m 14,0 km/h (3 Bft) W 270 6,9 C 6,1 C
05.10.2012 01:21 8,4 C 90 % 1014,3 hPa 0,0 l/m 7,6 km/h (2 Bft) W 270 6,9 C 7,2 C
05.10.2012 01:26 8,4 C 90 % 1014,2 hPa 0,0 l/m 9,7 km/h (2 Bft) NW 315 6,9 C 6,8 C
05.10.2012 01:31 8,5 C 90 % 1014,3 hPa 0,0 l/m 17,3 km/h (3 Bft) W-SW 247 7,0 C 5,8 C
05.10.2012 01:36 8,5 C 91 % 1014,3 hPa 0,0 l/m 14,4 km/h (3 Bft) SW 225 7,1 C 6,1 C
05.10.2012 01:41 8,5 C 91 % 1014,2 hPa 0,0 l/m 13,7 km/h (3 Bft) W 270 7,1 C 6,2 C
05.10.2012 01:46 8,6 C 91 % 1014,2 hPa 0,0 l/m 8,6 km/h (2 Bft) SW 225 7,2 C 7,2 C
05.10.2012 01:51 8,5 C 91 % 1014,3 hPa 0,0 l/m 17,6 km/h (3 Bft) W-SW 247 7,1 C 5,7 C
05.10.2012 01:56 8,5 C 90 % 1014,4 hPa 0,0 l/m 18,0 km/h (3 Bft) W-SW 247 7,0 C 5,7 C
05.10.2012 02:01 8,5 C 90 % 1014,4 hPa 0,0 l/m 9,4 km/h (2 Bft) W 270 7,0 C 7,0 C
05.10.2012 02:06 8,5 C 90 % 1014,5 hPa 0,0 l/m 10,8 km/h (2 Bft) W-SW 247 7,0 C 6,7 C
05.10.2012 02:11 8,6 C 90 % 1014,5 hPa 0,0 l/m 16,9 km/h (3 Bft) W 270 7,1 C 6,0 C
05.10.2012 02:16 8,6 C 90 % 1014,4 hPa 0,0 l/m 5,4 km/h (1 Bft) SW 225 7,1 C 8,0 C
05.10.2012 02:21 8,6 C 90 % 1014,5 hPa 0,0 l/m 4,0 km/h (1 Bft) SW 225 7,1 C 8,6 C
05.10.2012 02:26 8,6 C 90 % 1014,5 hPa 0,0 l/m 4,3 km/h (1 Bft) SW 225 7,1 C 8,6 C
05.10.2012 02:31 8,6 C 90 % 1014,6 hPa 0,0 l/m 8,6 km/h (2 Bft) W-SW 247 7,1 C 7,2 C
05.10.2012 02:36 8,6 C 90 % 1014,5 hPa 0,0 l/m 10,8 km/h (2 Bft) W 270 7,1 C 6,8 C
05.10.2012 02:41 8,6 C 90 % 1014,5 hPa 0,0 l/m 16,9 km/h (3 Bft) W 270 7,1 C 6,0 C
05.10.2012 02:46 8,6 C 90 % 1014,4 hPa 0,0 l/m 9,4 km/h (2 Bft) W 270 7,1 C 7,1 C
05.10.2012 02:51 8,7 C 90 % 1014,6 hPa 0,0 l/m 5,0 km/h (1 Bft) S-SW 202 7,2 C 8,3 C
05.10.2012 02:56 8,7 C 90 % 1014,4 hPa 0,0 l/m 9,4 km/h (2 Bft) W-SW 247 7,2 C 7,2 C
05.10.2012 03:01 8,7 C 90 % 1014,0 hPa 0,0 l/m 8,3 km/h (2 Bft) W-SW 247 7,2 C 7,4 C
05.10.2012 03:06 8,8 C 90 % 1014,3 hPa 0,0 l/m 13,7 km/h (3 Bft) W-SW 247 7,3 C 6,6 C
05.10.2012 03:11 8,8 C 90 % 1014,3 hPa 0,0 l/m 4,0 km/h (1 Bft) SW 225 7,3 C 8,8 C
05.10.2012 03:16 8,8 C 90 % 1014,3 hPa 0,0 l/m 2,2 km/h (1 Bft) S-SW 202 7,3 C 8,8 C
05.10.2012 03:21 8,8 C 90 % 1014,2 hPa 0,0 l/m 4,3 km/h (1 Bft) S-SW 202 7,3 C 8,8 C
05.10.2012 03:26 8,8 C 90 % 1014,3 hPa 0,0 l/m 4,0 km/h (1 Bft) SW 225 7,3 C 8,8 C
05.10.2012 03:31 8,8 C 90 % 1014,5 hPa 0,0 l/m 9,7 km/h (2 Bft) SW 225 7,3 C 7,3 C
05.10.2012 03:36 8,8 C 90 % 1014,5 hPa 0,0 l/m 5,4 km/h (1 Bft) S-SW 202 7,3 C 8,3 C
05.10.2012 03:41 8,7 C 90 % 1014,5 hPa 0,0 l/m 11,9 km/h (2 Bft) S-SW 202 7,2 C 6,8 C
05.10.2012 03:46 8,7 C 90 % 1014,4 hPa 0,0 l/m 8,6 km/h (2 Bft) S-SW 202 7,2 C 7,4 C
05.10.2012 03:51 8,7 C 90 % 1014,5 hPa 0,0 l/m 13,7 km/h (3 Bft) W-SW 247 7,2 C 6,5 C
05.10.2012 03:56 8,6 C 90 % 1014,4 hPa 0,0 l/m 4,0 km/h (1 Bft) S-SW 202 7,1 C 8,6 C
05.10.2012 04:01 8,6 C 90 % 1014,5 hPa 0,0 l/m 7,6 km/h (2 Bft) S-SW 202 7,1 C 7,5 C
05.10.2012 04:06 8,5 C 90 % 1014,2 hPa 0,0 l/m 7,9 km/h (2 Bft) S-SW 202 7,0 C 7,3 C
05.10.2012 04:11 8,5 C 90 % 1014,6 hPa 0,0 l/m 4,7 km/h (1 Bft) SW 225 7,0 C 8,2 C
05.10.2012 04:16 8,5 C 90 % 1014,5 hPa 0,0 l/m 6,5 km/h (2 Bft) S-SW 202 7,0 C 7,6 C
05.10.2012 04:21 8,5 C 90 % 1014,4 hPa 0,0 l/m 7,2 km/h (2 Bft) S-SW 202 7,0 C 7,4 C
05.10.2012 04:26 8,4 C 90 % 1014,4 hPa 0,0 l/m 6,5 km/h (2 Bft) SW 225 6,9 C 7,5 C
05.10.2012 04:31 8,4 C 90 % 1014,2 hPa 0,0 l/m 6,8 km/h (2 Bft) SW 225 6,9 C 7,4 C
05.10.2012 04:36 8,4 C 90 % 1014,2 hPa 0,0 l/m 8,3 km/h (2 Bft) S-SW 202 6,9 C 7,1 C
05.10.2012 04:41 8,3 C 90 % 1014,2 hPa 0,0 l/m 3,6 km/h (1 Bft) S 180 6,8 C 8,3 C
05.10.2012 04:46 8,3 C 90 % 1014,0 hPa 0,0 l/m 6,1 km/h (2 Bft) S-SW 202 6,8 C 7,5 C
05.10.2012 04:51 8,2 C 90 % 1014,0 hPa 0,0 l/m 4,7 km/h (1 Bft) S-SW 202 6,7 C 7,8 C
05.10.2012 04:56 8,1 C 90 % 1013,9 hPa 0,0 l/m 4,7 km/h (1 Bft) S-SW 202 6,6 C 7,7 C
05.10.2012 05:01 8,1 C 90 % 1013,8 hPa 0,0 l/m 7,6 km/h (2 Bft) SW 225 6,6 C 6,9 C
05.10.2012 05:06 8,1 C 90 % 1014,0 hPa 0,0 l/m 3,2 km/h (1 Bft) S 180 6,6 C 8,1 C
05.10.2012 05:11 8,1 C 90 % 1013,9 hPa 0,0 l/m 3,2 km/h (1 Bft) S-SW 202 6,6 C 8,1 C
05.10.2012 05:16 8,1 C 90 % 1013,9 hPa 0,0 l/m 3,2 km/h (1 Bft) S-SW 202 6,6 C 8,1 C
05.10.2012 05:21 8,1 C 90 % 1013,8 hPa 0,0 l/m 4,3 km/h (1 Bft) W-SW 247 6,6 C 8,1 C
05.10.2012 05:26 8,1 C 90 % 1013,7 hPa 0,0 l/m 3,2 km/h (1 Bft) S-SO 157 6,6 C 8,1 C
05.10.2012 05:31 8,1 C 90 % 1013,6 hPa 0,0 l/m 3,2 km/h (1 Bft) S-SW 202 6,6 C 8,1 C
05.10.2012 05:36 8,1 C 90 % 1013,6 hPa 0,0 l/m 3,6 km/h (1 Bft) S-SW 202 6,6 C 8,1 C
05.10.2012 05:41 8,1 C 90 % 1013,6 hPa 0,0 l/m 6,8 km/h (2 Bft) S 180 6,6 C 7,1 C
05.10.2012 05:46 8,1 C 90 % 1013,6 hPa 0,0 l/m 4,0 km/h (1 Bft) S-SO 157 6,6 C 8,1 C
05.10.2012 05:51 8,1 C 90 % 1013,5 hPa 0,0 l/m 7,2 km/h (2 Bft) S-SO 157 6,6 C 7,0 C
05.10.2012 05:56 7,9 C 90 % 1013,5 hPa 0,0 l/m 4,7 km/h (1 Bft) S-SW 202 6,4 C 7,5 C
05.10.2012 06:01 7,9 C 90 % 1013,3 hPa 0,0 l/m 5,0 km/h (1 Bft) SW 225 6,4 C 7,4 C
05.10.2012 06:06 7,9 C 90 % 1013,4 hPa 0,0 l/m 4,3 km/h (1 Bft) S-SW 202 6,4 C 7,9 C
05.10.2012 06:11 7,9 C 90 % 1013,5 hPa 0,0 l/m 6,1 km/h (2 Bft) S 180 6,4 C 7,0 C
05.10.2012 06:16 7,9 C 90 % 1013,4 hPa 0,0 l/m 3,6 km/h (1 Bft) SO 135 6,4 C 7,9 C
05.10.2012 06:21 7,9 C 90 % 1013,4 hPa 0,0 l/m 6,8 km/h (2 Bft) S-SW 202 6,4 C 6,8 C
05.10.2012 06:26 7,9 C 90 % 1013,4 hPa 0,0 l/m 6,5 km/h (2 Bft) SW 225 6,4 C 6,9 C
05.10.2012 06:31 7,9 C 90 % 1013,3 hPa 0,0 l/m 3,6 km/h (1 Bft) S 180 6,4 C 7,9 C
05.10.2012 06:36 7,8 C 90 % 1013,1 hPa 0,0 l/m 4,0 km/h (1 Bft) SO 135 6,3 C 7,8 C
05.10.2012 06:41 7,8 C 90 % 1013,2 hPa 0,0 l/m 14,4 km/h (3 Bft) S-SW 202 6,3 C 5,3 C
05.10.2012 06:46 7,8 C 90 % 1013,1 hPa 0,0 l/m 6,1 km/h (2 Bft) S 180 6,3 C 6,9 C
05.10.2012 06:51 7,8 C 90 % 1013,1 hPa 0,0 l/m 5,8 km/h (2 Bft) SW 225 6,3 C 7,0 C
05.10.2012 06:56 7,8 C 90 % 1012,8 hPa 0,0 l/m 4,7 km/h (1 Bft) S-SO 157 6,3 C 7,4 C
05.10.2012 07:01 7,8 C 90 % 1012,8 hPa 0,0 l/m 7,2 km/h (2 Bft) S 180 6,3 C 6,6 C
05.10.2012 07:06 7,8 C 90 % 1012,8 hPa 0,0 l/m 3,2 km/h (1 Bft) S 180 6,3 C 7,8 C
05.10.2012 07:11 7,8 C 90 % 1012,8 hPa 0,0 l/m 7,2 km/h (2 Bft) S-SW 202 6,3 C 6,6 C
05.10.2012 07:16 7,8 C 90 % 1012,8 hPa 0,0 l/m 5,0 km/h (1 Bft) W-SW 247 6,3 C 7,3 C
05.10.2012 07:21 7,8 C 90 % 1012,6 hPa 0,0 l/m 4,7 km/h (1 Bft) S-SO 157 6,3 C 7,4 C
05.10.2012 07:26 7,7 C 90 % 1012,7 hPa 0,0 l/m 6,1 km/h (2 Bft) S 180 6,2 C 6,8 C
05.10.2012 07:31 7,6 C 90 % 1012,7 hPa 0,0 l/m 5,0 km/h (1 Bft) W-SW 247 6,1 C 7,0 C
05.10.2012 07:36 7,6 C 90 % 1012,7 hPa 0,0 l/m 10,4 km/h (2 Bft) W-SW 247 6,1 C 5,7 C
05.10.2012 07:41 7,7 C 90 % 1012,7 hPa 0,0 l/m 9,0 km/h (2 Bft) SW 225 6,2 C 6,1 C
05.10.2012 07:46 7,8 C 91 % 1012,8 hPa 0,0 l/m 8,3 km/h (2 Bft) S-SW 202 6,4 C 6,4 C
05.10.2012 07:51 7,9 C 91 % 1012,7 hPa 0,0 l/m 2,5 km/h (1 Bft) S-SO 157 6,5 C 7,9 C
05.10.2012 07:56 7,9 C 90 % 1012,5 hPa 0,0 l/m 6,1 km/h (2 Bft) SW 225 6,4 C 7,0 C
05.10.2012 08:01 8,1 C 90 % 1012,3 hPa 0,0 l/m 2,5 km/h (1 Bft) SO 135 6,6 C 8,1 C
05.10.2012 08:06 8,1 C 90 % 1012,4 hPa 0,0 l/m 4,0 km/h (1 Bft) S-SO 157 6,6 C 8,1 C
05.10.2012 08:11 8,2 C 90 % 1012,2 hPa 0,0 l/m 7,6 km/h (2 Bft) S 180 6,7 C 7,0 C
05.10.2012 08:16 8,3 C 90 % 1012,2 hPa 0,0 l/m 11,5 km/h (2 Bft) S-SW 202 6,8 C 6,3 C
05.10.2012 08:21 8,3 C 90 % 1012,1 hPa 0,0 l/m 3,2 km/h (1 Bft) S-SW 202 6,8 C 8,3 C
05.10.2012 08:26 8,4 C 90 % 1012,0 hPa 0,0 l/m 8,6 km/h (2 Bft) S-SO 157 6,9 C 7,0 C
05.10.2012 08:31 8,4 C 90 % 1012,0 hPa 0,0 l/m 6,8 km/h (2 Bft) S 180 6,9 C 7,4 C
05.10.2012 08:36 8,4 C 90 % 1011,9 hPa 0,0 l/m 10,4 km/h (2 Bft) S 180 6,9 C 6,6 C
05.10.2012 08:41 8,5 C 89 % 1012,0 hPa 0,0 l/m 5,4 km/h (1 Bft) S 180 6,8 C 7,9 C
05.10.2012 08:46 8,6 C 89 % 1011,8 hPa 0,0 l/m 4,7 km/h (1 Bft) S-SW 202 6,9 C 8,3 C
05.10.2012 08:51 8,8 C 89 % 1011,9 hPa 0,0 l/m 4,0 km/h (1 Bft) S-SW 202 7,1 C 8,8 C
05.10.2012 08:56 8,8 C 89 % 1011,8 hPa 0,0 l/m 5,8 km/h (2 Bft) S-SO 157 7,1 C 8,1 C
05.10.2012 09:01 8,9 C 89 % 1011,8 hPa 0,0 l/m 13,0 km/h (3 Bft) SW 225 7,2 C 6,8 C
05.10.2012 09:06 8,9 C 89 % 1011,7 hPa 0,0 l/m 14,8 km/h (3 Bft) S 180 7,2 C 6,6 C
05.10.2012 09:11 8,9 C 89 % 1011,8 hPa 0,0 l/m 7,6 km/h (2 Bft) S-SW 202 7,2 C 7,8 C
05.10.2012 09:16 9,0 C 89 % 1011,7 hPa 0,0 l/m 9,4 km/h (2 Bft) W-SW 247 7,3 C 7,5 C
05.10.2012 09:21 9,1 C 88 % 1011,7 hPa 0,0 l/m 10,8 km/h (2 Bft) SW 225 7,2 C 7,4 C
05.10.2012 09:26 9,2 C 88 % 1011,6 hPa 0,0 l/m 16,2 km/h (3 Bft) S-SW 202 7,3 C 6,8 C
05.10.2012 09:31 9,2 C 88 % 1011,6 hPa 0,0 l/m 12,2 km/h (2 Bft) S-SW 202 7,3 C 7,3 C
05.10.2012 09:36 9,3 C 88 % 1011,7 hPa 0,0 l/m 14,4 km/h (3 Bft) SW 225 7,4 C 7,1 C
05.10.2012 09:41 9,4 C 88 % 1011,3 hPa 0,0 l/m 10,1 km/h (2 Bft) S-SW 202 7,5 C 7,9 C
05.10.2012 09:46 9,5 C 87 % 1011,4 hPa 0,0 l/m 10,1 km/h (2 Bft) SW 225 7,4 C 8,0 C
05.10.2012 09:51 9,5 C 87 % 1011,3 hPa 0,0 l/m 15,8 km/h (3 Bft) S-SO 157 7,4 C 7,2 C
05.10.2012 09:56 9,6 C 87 % 1011,3 hPa 0,0 l/m 14,8 km/h (3 Bft) SW 225 7,5 C 7,4 C
05.10.2012 10:01 9,8 C 87 % 1011,1 hPa 0,0 l/m 18,0 km/h (3 Bft) S 180 7,7 C 7,3 C
05.10.2012 10:06 9,8 C 87 % 1010,7 hPa 0,0 l/m 7,6 km/h (2 Bft) S 180 7,7 C 8,9 C
05.10.2012 10:11 9,9 C 87 % 1010,8 hPa 0,0 l/m 7,2 km/h (2 Bft) SW 225 7,8 C 9,1 C
05.10.2012 10:16 9,9 C 86 % 1010,7 hPa 0,0 l/m 9,7 km/h (2 Bft) S 180 7,7 C 8,6 C
05.10.2012 10:21 10,1 C 86 % 1010,7 hPa 0,0 l/m 19,4 km/h (3 Bft) S-SW 202 7,9 C 10,1 C
05.10.2012 10:26 10,1 C 86 % 1010,7 hPa 0,0 l/m 10,4 km/h (2 Bft) S 180 7,9 C 10,1 C
05.10.2012 10:31 10,2 C 85 % 1010,3 hPa 0,0 l/m 5,8 km/h (2 Bft) S-SO 157 7,8 C 10,2 C
05.10.2012 10:36 10,2 C 85 % 1010,3 hPa 0,0 l/m 9,0 km/h (2 Bft) S-SW 202 7,8 C 10,2 C
05.10.2012 10:41 10,3 C 85 % 1010,2 hPa 0,0 l/m 10,1 km/h (2 Bft) S-SW 202 7,9 C 10,3 C
05.10.2012 10:46 10,3 C 85 % 1010,1 hPa 0,0 l/m 14,0 km/h (3 Bft) S 180 7,9 C 10,3 C
05.10.2012 10:51 10,3 C 85 % 1009,9 hPa 0,0 l/m 10,4 km/h (2 Bft) S-SO 157 7,9 C 10,3 C
05.10.2012 10:56 10,2 C 85 % 1009,9 hPa 0,0 l/m 4,7 km/h (1 Bft) SW 225 7,8 C 10,2 C
05.10.2012 11:01 10,3 C 86 % 1009,8 hPa 0,0 l/m 15,5 km/h (3 Bft) S 180 8,1 C 10,3 C
05.10.2012 11:06 10,2 C 86 % 1009,6 hPa 0,0 l/m 11,5 km/h (2 Bft) S-SO 157 8,0 C 10,2 C
05.10.2012 11:11 10,2 C 86 % 1009,4 hPa 0,0 l/m 12,2 km/h (2 Bft) SO 135 8,0 C 10,2 C
05.10.2012 11:16 10,3 C 86 % 1009,3 hPa 0,0 l/m 15,5 km/h (3 Bft) SW 225 8,1 C 10,3 C
05.10.2012 11:21 10,3 C 86 % 1009,2 hPa 0,5 l/m 8,3 km/h (2 Bft) S-SW 202 8,1 C 10,3 C
05.10.2012 11:26 10,3 C 86 % 1008,8 hPa 0,0 l/m 6,1 km/h (2 Bft) S-SW 202 8,1 C 10,3 C
05.10.2012 11:31 10,3 C 86 % 1008,8 hPa 0,5 l/m 12,2 km/h (2 Bft) SW 225 8,1 C 10,3 C
05.10.2012 11:36 10,2 C 86 % 1008,7 hPa 0,0 l/m 4,7 km/h (1 Bft) S-SO 157 8,0 C 10,2 C
05.10.2012 11:41 10,2 C 87 % 1008,5 hPa 0,5 l/m 10,8 km/h (2 Bft) W-SW 247 8,1 C 10,2 C
05.10.2012 11:46 10,1 C 87 % 1008,2 hPa 0,0 l/m 14,0 km/h (3 Bft) S-SO 157 8,0 C 10,1 C
05.10.2012 11:51 10,1 C 88 % 1007,9 hPa 0,0 l/m 7,6 km/h (2 Bft) S-SO 157 8,2 C 10,1 C
05.10.2012 11:56 10,1 C 88 % 1007,7 hPa 0,5 l/m 5,4 km/h (1 Bft) S-SW 202 8,2 C 10,1 C
05.10.2012 12:01 10,1 C 88 % 1007,6 hPa 0,0 l/m 9,4 km/h (2 Bft) S-SW 202 8,2 C 10,1 C
05.10.2012 12:06 10,1 C 88 % 1007,6 hPa 0,0 l/m 9,7 km/h (2 Bft) SO 135 8,2 C 10,1 C
05.10.2012 12:11 10,2 C 88 % 1007,6 hPa 0,0 l/m 7,9 km/h (2 Bft) SO 135 8,3 C 10,2 C
05.10.2012 12:16 10,1 C 89 % 1007,4 hPa 0,0 l/m 10,4 km/h (2 Bft) S-SO 157 8,4 C 10,1 C
05.10.2012 12:21 10,1 C 89 % 1007,3 hPa 0,5 l/m 4,3 km/h (1 Bft) S-SO 157 8,4 C 10,1 C
05.10.2012 12:26 10,2 C 89 % 1007,0 hPa 0,0 l/m 8,3 km/h (2 Bft) SO 135 8,5 C 10,2 C
05.10.2012 12:31 10,3 C 89 % 1007,0 hPa 0,0 l/m 8,6 km/h (2 Bft) SW 225 8,6 C 10,3 C
05.10.2012 12:36 10,4 C 89 % 1006,8 hPa 0,0 l/m 18,4 km/h (3 Bft) SO 135 8,7 C 10,4 C
05.10.2012 12:41 10,4 C 89 % 1006,8 hPa 0,0 l/m 7,6 km/h (2 Bft) NW 315 8,7 C 10,4 C
05.10.2012 12:46 10,5 C 89 % 1006,5 hPa 0,0 l/m 8,3 km/h (2 Bft) S-SO 157 8,8 C 10,5 C
05.10.2012 12:51 10,6 C 89 % 1006,3 hPa 0,0 l/m 16,2 km/h (3 Bft) S-SW 202 8,9 C 10,6 C
05.10.2012 12:56 10,8 C 89 % 1006,1 hPa 0,0 l/m 12,2 km/h (2 Bft) O-SO 112 9,1 C 10,8 C
05.10.2012 13:01 10,8 C 89 % 1005,9 hPa 0,0 l/m 15,8 km/h (3 Bft) S-SO 157 9,1 C 10,8 C
05.10.2012 13:06 10,8 C 89 % 1005,8 hPa 0,5 l/m 13,3 km/h (3 Bft) S-SW 202 9,1 C 10,8 C
05.10.2012 13:11 10,9 C 89 % 1005,6 hPa 0,0 l/m 13,7 km/h (3 Bft) S-SO 157 9,2 C 10,9 C
05.10.2012 13:16 10,9 C 90 % 1005,3 hPa 0,0 l/m 16,9 km/h (3 Bft) S 180 9,3 C 10,9 C
05.10.2012 13:21 10,8 C 90 % 1005,0 hPa 0,0 l/m 12,2 km/h (2 Bft) S-SO 157 9,2 C 10,8 C
05.10.2012 13:26 10,8 C 90 % 1004,8 hPa 0,0 l/m 12,6 km/h (3 Bft) W-SW 247 9,2 C 10,8 C
05.10.2012 13:31 10,9 C 90 % 1004,6 hPa 0,0 l/m 22,7 km/h (4 Bft) S-SW 202 9,3 C 10,9 C
05.10.2012 13:36 10,9 C 90 % 1004,4 hPa 0,0 l/m 28,4 km/h (4 Bft) S 180 9,3 C 10,9 C
05.10.2012 13:41 11,1 C 90 % 1004,1 hPa 0,0 l/m 13,3 km/h (3 Bft) S-SW 202 9,5 C 11,1 C
05.10.2012 13:46 11,1 C 90 % 1004,1 hPa 0,0 l/m 18,7 km/h (3 Bft) S 180 9,5 C 11,1 C
05.10.2012 13:51 11,3 C 90 % 1003,9 hPa 0,0 l/m 28,1 km/h (4 Bft) S 180 9,7 C 11,3 C
05.10.2012 13:56 11,3 C 90 % 1003,8 hPa 0,0 l/m 18,7 km/h (3 Bft) O-SO 112 9,7 C 11,3 C
05.10.2012 14:01 11,4 C 89 % 1003,7 hPa 0,0 l/m 19,8 km/h (3 Bft) SO 135 9,7 C 11,4 C
05.10.2012 14:06 11,5 C 89 % 1003,7 hPa 0,0 l/m 13,7 km/h (3 Bft) SW 225 9,8 C 11,5 C
05.10.2012 14:11 11,7 C 89 % 1003,4 hPa 0,0 l/m 22,3 km/h (4 Bft) S-SW 202 9,9 C 11,7 C
05.10.2012 14:16 11,8 C 89 % 1003,4 hPa 0,0 l/m 11,9 km/h (2 Bft) S-SW 202 10,0 C 11,8 C
05.10.2012 14:21 12,1 C 89 % 1003,3 hPa 0,0 l/m 14,8 km/h (3 Bft) S 180 10,3 C 12,1 C
05.10.2012 14:26 12,3 C 89 % 1003,0 hPa 0,0 l/m 17,3 km/h (3 Bft) S 180 10,5 C 12,3 C
05.10.2012 14:31 12,4 C 89 % 1003,0 hPa 0,0 l/m 11,2 km/h (2 Bft) S-SW 202 10,6 C 12,4 C
05.10.2012 14:36 12,7 C 88 % 1003,2 hPa 0,0 l/m 26,6 km/h (4 Bft) SW 225 10,8 C 12,7 C
05.10.2012 14:41 13,0 C 88 % 1003,0 hPa 0,0 l/m 11,9 km/h (2 Bft) S-SW 202 11,1 C 13,0 C
05.10.2012 14:46 13,2 C 88 % 1002,9 hPa 0,0 l/m 15,1 km/h (3 Bft) W-SW 247 11,3 C 13,2 C
05.10.2012 14:51 13,3 C 87 % 1002,9 hPa 0,0 l/m 22,7 km/h (4 Bft) S-SW 202 11,2 C 13,3 C
05.10.2012 14:56 13,4 C 87 % 1002,7 hPa 0,0 l/m 7,6 km/h (2 Bft) W-SW 247 11,3 C 13,4 C
05.10.2012 15:01 13,6 C 87 % 1002,5 hPa 0,0 l/m 11,5 km/h (2 Bft) S-SW 202 11,5 C 13,6 C
05.10.2012 15:06 13,6 C 87 % 1002,3 hPa 0,0 l/m 15,1 km/h (3 Bft) S-SW 202 11,5 C 13,6 C
05.10.2012 15:11 13,6 C 87 % 1002,4 hPa 0,0 l/m 18,4 km/h (3 Bft) SW 225 11,5 C 13,6 C
05.10.2012 15:16 13,8 C 87 % 1002,5 hPa 0,0 l/m 14,0 km/h (3 Bft) SW 225 11,7 C 13,8 C
05.10.2012 15:21 13,9 C 87 % 1002,4 hPa 0,0 l/m 21,6 km/h (4 Bft) W-SW 247 11,8 C 13,9 C
05.10.2012 15:26 13,9 C 86 % 1002,3 hPa 0,0 l/m 39,2 km/h (6 Bft) W-SW 247 11,6 C 13,9 C
05.10.2012 15:31 14,2 C 86 % 1002,4 hPa 0,0 l/m 26,6 km/h (4 Bft) W-SW 247 11,9 C 14,2 C
05.10.2012 15:36 14,4 C 86 % 1002,2 hPa 0,0 l/m 29,5 km/h (5 Bft) SW 225 12,1 C 14,4 C
05.10.2012 15:41 14,6 C 86 % 1002,3 hPa 0,0 l/m 16,6 km/h (3 Bft) W-SW 247 12,3 C 14,6 C
05.10.2012 15:46 14,9 C 86 % 1002,3 hPa 0,0 l/m 25,2 km/h (4 Bft) SW 225 12,6 C 14,9 C
05.10.2012 15:51 15,1 C 85 % 1002,3 hPa 0,0 l/m 16,9 km/h (3 Bft) SW 225 12,6 C 15,1 C
05.10.2012 15:56 15,5 C 84 % 1002,2 hPa 0,0 l/m 19,8 km/h (3 Bft) W-SW 247 12,8 C 15,5 C
05.10.2012 16:01 15,9 C 83 % 1002,3 hPa 0,0 l/m 29,2 km/h (5 Bft) W-SW 247 13,0 C 15,9 C
05.10.2012 16:06 16,1 C 81 % 1002,3 hPa 0,0 l/m 25,6 km/h (4 Bft) W-SW 247 12,8 C 16,1 C
05.10.2012 16:11 16,3 C 81 % 1002,4 hPa 0,0 l/m 25,2 km/h (4 Bft) SW 225 13,0 C 16,3 C
05.10.2012 16:16 16,4 C 80 % 1002,5 hPa 0,0 l/m 21,2 km/h (4 Bft) W-NW 292 12,9 C 16,4 C
05.10.2012 16:21 16,4 C 81 % 1002,7 hPa 0,0 l/m 18,0 km/h (3 Bft) S-SW 202 13,1 C 16,4 C
05.10.2012 16:26 16,3 C 82 % 1002,7 hPa 0,0 l/m 26,6 km/h (4 Bft) W 270 13,2 C 16,3 C
05.10.2012 16:31 16,2 C 83 % 1002,8 hPa 0,0 l/m 24,5 km/h (4 Bft) S 180 13,3 C 16,2 C
05.10.2012 16:36 16,1 C 84 % 1002,7 hPa 0,0 l/m 18,4 km/h (3 Bft) W-SW 247 13,4 C 16,1 C
05.10.2012 16:41 15,8 C 85 % 1002,9 hPa 0,0 l/m 33,8 km/h (5 Bft) W-SW 247 13,3 C 15,8 C
05.10.2012 16:46 15,8 C 85 % 1003,2 hPa 0,0 l/m 26,6 km/h (4 Bft) W-SW 247 13,3 C 15,8 C
05.10.2012 16:51 15,6 C 86 % 1003,1 hPa 0,0 l/m 24,1 km/h (4 Bft) W-SW 247 13,3 C 15,6 C
05.10.2012 16:56 15,4 C 87 % 1003,3 hPa 0,0 l/m 26,6 km/h (4 Bft) W-SW 247 13,2 C 15,4 C
05.10.2012 17:01 15,3 C 87 % 1003,5 hPa 0,0 l/m 18,4 km/h (3 Bft) W-NW 292 13,1 C 15,3 C
05.10.2012 17:06 15,3 C 87 % 1003,4 hPa 0,0 l/m 24,5 km/h (4 Bft) W 270 13,1 C 15,3 C
05.10.2012 17:11 15,3 C 86 % 1003,5 hPa 0,0 l/m 29,5 km/h (5 Bft) W-NW 292 13,0 C 15,3 C
05.10.2012 17:16 15,3 C 86 % 1003,8 hPa 0,0 l/m 27,0 km/h (4 Bft) W-SW 247 13,0 C 15,3 C
05.10.2012 17:21 15,3 C 86 % 1003,7 hPa 0,0 l/m 23,4 km/h (4 Bft) W-SW 247 13,0 C 15,3 C
05.10.2012 17:26 15,1 C 86 % 1004,0 hPa 0,0 l/m 25,2 km/h (4 Bft) W-SW 247 12,8 C 15,1 C
05.10.2012 17:31 15,0 C 86 % 1004,1 hPa 0,0 l/m 25,6 km/h (4 Bft) W-SW 247 12,7 C 15,0 C
05.10.2012 17:36 14,9 C 86 % 1004,3 hPa 0,0 l/m 21,6 km/h (4 Bft) W-SW 247 12,6 C 14,9 C
05.10.2012 17:41 14,9 C 84 % 1004,4 hPa 0,0 l/m 20,2 km/h (4 Bft) S 180 12,2 C 14,9 C
05.10.2012 17:46 15,1 C 83 % 1004,5 hPa 0,0 l/m 13,3 km/h (3 Bft) W 270 12,2 C 15,1 C
05.10.2012 17:51 15,2 C 80 % 1004,6 hPa 0,0 l/m 29,5 km/h (5 Bft) W-NW 292 11,8 C 15,2 C
05.10.2012 17:56 15,3 C 76 % 1004,8 hPa 0,0 l/m 26,3 km/h (4 Bft) S-SW 202 11,1 C 15,3 C
05.10.2012 18:01 15,3 C 74 % 1005,1 hPa 0,0 l/m 13,0 km/h (3 Bft) W-NW 292 10,7 C 15,3 C
05.10.2012 18:06 15,3 C 73 % 1005,1 hPa 0,0 l/m 18,4 km/h (3 Bft) W-SW 247 10,5 C 15,3 C
05.10.2012 18:11 15,3 C 72 % 1005,1 hPa 0,0 l/m 27,7 km/h (4 Bft) NW 315 10,3 C 15,3 C
05.10.2012 18:16 15,2 C 72 % 1005,3 hPa 0,0 l/m 9,7 km/h (2 Bft) W-NW 292 10,2 C 15,2 C
05.10.2012 18:21 14,9 C 72 % 1005,4 hPa 0,0 l/m 22,7 km/h (4 Bft) W 270 9,9 C 14,9 C
05.10.2012 18:26 14,9 C 72 % 1005,7 hPa 0,0 l/m 18,4 km/h (3 Bft) W-SW 247 9,9 C 14,9 C
05.10.2012 18:31 14,9 C 73 % 1005,8 hPa 0,0 l/m 25,2 km/h (4 Bft) W 270 10,1 C 14,9 C
05.10.2012 18:36 14,9 C 74 % 1005,8 hPa 0,0 l/m 5,0 km/h (1 Bft) W-SW 247 10,3 C 14,9 C
05.10.2012 18:41 14,8 C 73 % 1006,1 hPa 0,0 l/m 27,4 km/h (4 Bft) W 270 10,0 C 14,8 C
05.10.2012 18:46 14,7 C 73 % 1006,2 hPa 0,0 l/m 14,4 km/h (3 Bft) NW 315 9,9 C 14,7 C
05.10.2012 18:51 14,6 C 74 % 1006,2 hPa 0,0 l/m 25,6 km/h (4 Bft) W 270 10,0 C 14,6 C
05.10.2012 18:56 14,5 C 74 % 1006,3 hPa 0,0 l/m 18,0 km/h (3 Bft) W 270 9,9 C 14,5 C
05.10.2012 19:01 14,4 C 75 % 1006,3 hPa 0,0 l/m 14,8 km/h (3 Bft) W 270 10,0 C 14,4 C
05.10.2012 19:06 14,3 C 75 % 1006,6 hPa 0,0 l/m 18,0 km/h (3 Bft) W-NW 292 9,9 C 14,3 C
05.10.2012 19:11 14,3 C 76 % 1006,7 hPa 0,0 l/m 15,5 km/h (3 Bft) W 270 10,1 C 14,3 C
05.10.2012 19:16 14,1 C 76 % 1006,8 hPa 0,0 l/m 11,9 km/h (2 Bft) W-SW 247 9,9 C 14,1 C
05.10.2012 19:21 14,1 C 75 % 1006,9 hPa 0,0 l/m 8,3 km/h (2 Bft) SW 225 9,7 C 14,1 C
05.10.2012 19:26 14,0 C 74 % 1006,8 hPa 0,0 l/m 16,6 km/h (3 Bft) W-SW 247 9,4 C 14,0 C
05.10.2012 19:31 13,9 C 74 % 1006,9 hPa 0,0 l/m 25,6 km/h (4 Bft) W 270 9,3 C 13,9 C
05.10.2012 19:36 13,9 C 74 % 1006,9 hPa 0,0 l/m 12,2 km/h (2 Bft) W-SW 247 9,3 C 13,9 C
05.10.2012 19:41 13,8 C 75 % 1007,1 hPa 0,0 l/m 10,8 km/h (2 Bft) NW 315 9,4 C 13,8 C
05.10.2012 19:46 13,8 C 75 % 1007,3 hPa 0,0 l/m 7,2 km/h (2 Bft) W 270 9,4 C 13,8 C
05.10.2012 19:51 13,6 C 76 % 1007,3 hPa 0,0 l/m 16,2 km/h (3 Bft) W-SW 247 9,4 C 13,6 C
05.10.2012 19:56 13,6 C 76 % 1007,3 hPa 0,0 l/m 12,6 km/h (3 Bft) W 270 9,4 C 13,6 C
05.10.2012 20:01 13,6 C 76 % 1007,3 hPa 0,0 l/m 12,2 km/h (2 Bft) W 270 9,4 C 13,6 C
05.10.2012 20:06 13,6 C 76 % 1007,4 hPa 0,0 l/m 8,3 km/h (2 Bft) W-SW 247 9,4 C 13,6 C
05.10.2012 20:11 13,5 C 76 % 1007,4 hPa 0,0 l/m 13,0 km/h (3 Bft) W-SW 247 9,4 C 13,5 C
05.10.2012 20:16 13,4 C 77 % 1007,5 hPa 0,0 l/m 8,3 km/h (2 Bft) W 270 9,5 C 13,4 C
05.10.2012 20:21 13,4 C 77 % 1007,5 hPa 0,0 l/m 9,4 km/h (2 Bft) W 270 9,5 C 13,4 C
05.10.2012 20:26 13,4 C 77 % 1007,5 hPa 0,0 l/m 19,8 km/h (3 Bft) W-SW 247 9,5 C 13,4 C
05.10.2012 20:31 13,3 C 77 % 1007,7 hPa 0,0 l/m 7,2 km/h (2 Bft) W 270 9,4 C 13,3 C
05.10.2012 20:36 13,3 C 77 % 1007,8 hPa 0,0 l/m 10,1 km/h (2 Bft) NW 315 9,4 C 13,3 C
05.10.2012 20:41 13,2 C 77 % 1007,9 hPa 0,0 l/m 12,2 km/h (2 Bft) W 270 9,3 C 13,2 C
05.10.2012 20:46 13,2 C 77 % 1008,1 hPa 0,0 l/m 9,4 km/h (2 Bft) W-SW 247 9,3 C 13,2 C
05.10.2012 20:51 13,1 C 77 % 1008,0 hPa 0,0 l/m 18,7 km/h (3 Bft) W-SW 247 9,2 C 13,1 C
05.10.2012 20:56 13,0 C 77 % 1008,2 hPa 0,0 l/m 13,0 km/h (3 Bft) W-SW 247 9,1 C 13,0 C
05.10.2012 21:01 12,9 C 77 % 1008,3 hPa 0,0 l/m 14,0 km/h (3 Bft) W-NW 292 9,0 C 12,9 C
05.10.2012 21:06 12,9 C 77 % 1008,2 hPa 0,0 l/m 31,0 km/h (5 Bft) W-SW 247 9,0 C 12,9 C
05.10.2012 21:11 12,9 C 77 % 1008,5 hPa 0,0 l/m 12,6 km/h (3 Bft) W-SW 247 9,0 C 12,9 C
05.10.2012 21:16 12,9 C 77 % 1008,7 hPa 0,0 l/m 10,1 km/h (2 Bft) W 270 9,0 C 12,9 C
05.10.2012 21:21 12,9 C 77 % 1008,7 hPa 0,0 l/m 20,9 km/h (4 Bft) W-SW 247 9,0 C 12,9 C
05.10.2012 21:26 12,8 C 77 % 1008,7 hPa 0,0 l/m 10,4 km/h (2 Bft) W 270 8,9 C 12,8 C
05.10.2012 21:31 12,7 C 77 % 1008,9 hPa 0,0 l/m 15,1 km/h (3 Bft) W-SW 247 8,8 C 12,7 C
05.10.2012 21:36 12,5 C 77 % 1008,8 hPa 0,0 l/m 8,3 km/h (2 Bft) W-SW 247 8,6 C 12,5 C
05.10.2012 21:41 12,4 C 77 % 1009,0 hPa 0,0 l/m 16,6 km/h (3 Bft) W-SW 247 8,5 C 12,4 C
05.10.2012 21:46 12,4 C 77 % 1009,0 hPa 0,0 l/m 19,1 km/h (3 Bft) W 270 8,5 C 12,4 C
05.10.2012 21:51 12,4 C 77 % 1009,0 hPa 0,0 l/m 16,2 km/h (3 Bft) W-SW 247 8,5 C 12,4 C
05.10.2012 21:56 12,3 C 78 % 1009,2 hPa 0,0 l/m 11,2 km/h (2 Bft) W 270 8,6 C 12,3 C
05.10.2012 22:01 12,3 C 78 % 1009,2 hPa 0,0 l/m 7,2 km/h (2 Bft) SW 225 8,6 C 12,3 C
05.10.2012 22:06 12,2 C 78 % 1009,2 hPa 0,0 l/m 26,3 km/h (4 Bft) W-SW 247 8,5 C 12,2 C
05.10.2012 22:11 12,1 C 78 % 1009,4 hPa 0,0 l/m 16,9 km/h (3 Bft) W 270 8,4 C 12,1 C
05.10.2012 22:16 12,1 C 78 % 1009,4 hPa 0,0 l/m 18,0 km/h (3 Bft) W-SW 247 8,4 C 12,1 C
05.10.2012 22:21 12,1 C 79 % 1009,5 hPa 0,0 l/m 8,3 km/h (2 Bft) W-SW 247 8,6 C 12,1 C
05.10.2012 22:26 12,1 C 79 % 1009,6 hPa 0,0 l/m 10,4 km/h (2 Bft) W 270 8,6 C 12,1 C
05.10.2012 22:31 12,1 C 80 % 1009,8 hPa 0,0 l/m 4,3 km/h (1 Bft) W 270 8,8 C 12,1 C
05.10.2012 22:36 12,1 C 80 % 1009,8 hPa 0,0 l/m 9,7 km/h (2 Bft) W 270 8,8 C 12,1 C
05.10.2012 22:41 12,1 C 80 % 1009,8 hPa 0,0 l/m 7,9 km/h (2 Bft) W-NW 292 8,8 C 12,1 C
05.10.2012 22:46 12,2 C 80 % 1009,9 hPa 0,0 l/m 14,8 km/h (3 Bft) W-NW 292 8,9 C 12,2 C
05.10.2012 22:51 12,2 C 80 % 1009,9 hPa 0,0 l/m 13,0 km/h (3 Bft) W 270 8,9 C 12,2 C
05.10.2012 22:56 12,2 C 80 % 1009,9 hPa 0,0 l/m 11,5 km/h (2 Bft) W-SW 247 8,9 C 12,2 C
05.10.2012 23:01 12,2 C 81 % 1010,2 hPa 0,0 l/m 11,2 km/h (2 Bft) W-SW 247 9,0 C 12,2 C
05.10.2012 23:06 12,2 C 81 % 1010,1 hPa 0,0 l/m 8,3 km/h (2 Bft) W 270 9,0 C 12,2 C
05.10.2012 23:11 12,2 C 82 % 1010,0 hPa 0,0 l/m 15,5 km/h (3 Bft) W-SW 247 9,2 C 12,2 C
05.10.2012 23:16 12,2 C 82 % 1010,1 hPa 0,0 l/m 20,9 km/h (4 Bft) W-SW 247 9,2 C 12,2 C
05.10.2012 23:21 12,2 C 82 % 1010,0 hPa 0,0 l/m 25,2 km/h (4 Bft) W-SW 247 9,2 C 12,2 C
05.10.2012 23:26 12,2 C 82 % 1010,2 hPa 0,0 l/m 14,0 km/h (3 Bft) W-SW 247 9,2 C 12,2 C
05.10.2012 23:31 12,3 C 81 % 1010,3 hPa 0,0 l/m 22,7 km/h (4 Bft) W 270 9,1 C 12,3 C
05.10.2012 23:36 12,3 C 81 % 1010,3 hPa 0,0 l/m 18,0 km/h (3 Bft) W-SW 247 9,1 C 12,3 C
05.10.2012 23:41 12,3 C 81 % 1010,3 hPa 0,0 l/m 7,9 km/h (2 Bft) W-SW 247 9,1 C 12,3 C
05.10.2012 23:46 12,2 C 80 % 1010,2 hPa 0,0 l/m 5,8 km/h (2 Bft) W-SW 247 8,9 C 12,2 C
05.10.2012 23:51 12,2 C 80 % 1010,2 hPa 0,0 l/m 3,2 km/h (1 Bft) N-NW 337 8,9 C 12,2 C
05.10.2012 23:56 12,2 C 80 % 1010,5 hPa 0,0 l/m 3,6 km/h (1 Bft) W-NW 292 8,9 C 12,2 C
_ Min-Zeit 07:31 18:11 15:36 - 03:16 - - 07:31 00:16
Minimum _ 7,6 C 72 % 1002,2 hPa - 2,2 km/h (1 Bft) - - 6,1 C 5,3 C
_ Max-Zeit 16:16 01:36 02:31 11:21 15:26 - - 16:36 16:16
Maximum _ 16,4 C 91 % 1014,6 hPa 0,5 l/m 39,2 km/h
W-SW (6 Bft)
- - 13,4 C 16,4 C
Durchschnitt _ 11,0 C 86 % 1009,4 hPa #3,1 l/m 12,8 km/h (3 Bft) W-SW - 8,6 C 10,4 C
(c) by David Heller